SCP
0 0 0 0 -0 -0 -0 0 0 0 0 0 0 0 0 -0 0 0 0 0 -0 -0 -0 -0 0 0 0 0 0 -0 0 0 0 0 0 0 -0 0
0 0 0 0 0 -0 0 0 0 0 0 0 0 0 0 -0 -0 0 0 0 0 -0 -0 0 0 0 -0 0 0 0 0 -0 0 -0 -0 -0 0 0
0 0 -0 -0 0 0 0 0 0 0 0 0 0 0 0 0 0 0 0 0 0 -0 0 0 0 0 -0 0 0 0 -0 0 0 -0 -0 0 0 0
0 0 0 -0 -0 0 0 0 0 0 0 0 0 0 0 0 0 0 0 0 0 -0 0 -0 -0 -0 0 0 0 -0 -0 0 0 -0 0 0 0 0
0 0 0 0 0 0 0 0 0 0 0 0 0 0 0 0 0 0 0 0 -0 -0 0 0 -0 -0 0 0 -0 0 0 -0 -0 0 0 0 0 0
0 0 0 -0 0 -0 0 0 0 0 0 0 0 0 0 0 0 -0 0 0 0 0 0 0 -0 0 0 -0 0 -0 -0 -0 -0 0 0 0 0 0
0 -0 0 0 0 0 0 -0 -0 0 0 0 0 0 0 0 0 0 0 0 0 0 0 0 0 0 0 0 -0 -0 -0 -0 0 0 0 0 0 0
-0 0 0 0 0 -0 -0 -0 0 0 0 0 0 0 0 0 0 0 0 0 0 0 0 0 0 0 0 0 -0 -0 -0 0 0 0 0 0 0 0
0 0 0 0 -0 0 -0 -0 0 0 0 0 0 0 0 0 0 0 0 0 0 0 0 0 0 0 0 0 -0 0 0 0 0 0 0 0 0 0
-0 -0 -0 0 0 0 0 0 0 0 0 0 0 -0 -0 0 0 0 0 0 0 0 0 -0 -0 -0 -0 0 0 0 0 0 0 0 0 0 0 0
-0 -0 -0 -0 -0 -0 -0 0 0 0 0 0 0 -0 -0 0 0 0 -0 -0 -0 -0 0 -0 -0 0 0 0 0 0 0 0 0 0 0 0 0 0
-0 -0 -0 -0 -0 -0 -0 -0 0 -0 -0 -0 0 -0 0 -0 -0 0 -0 -0 -0 -0 -0 -0 -0 0 0 0 0 0 0 0 0 0 0 0 0 0
-0 -0 0 0 -0 -0 0 0 0 0 0 -0 -0 0 0 0 0 0 0 0 -0 0 -0 -0 0 0 0 0 0 0 0 0 0 0 0 0 0 0
-0 -0 -0 0 0 0 0 0 0 -0 -0 -0 0 -0 0 0 0 0 0 0 0 0 -0 -0 0 0 0 0 0 0 0 0 0 0 0 0 0 0
-0 0 0 0 -0 0 -0 0 0 0 0 -0 -0 0 0 -0 -0 -0 0 0 -0 0 -0 0 0 0 0 0 0 0 0 0 0 0 0 0 0 0
-0 0 -0 -0 0 0 0 0 0 0 0 0 -0 -0 -0 0 0 0 -0 -0 -0 0 0 0 0 0 0 0 0 0 0 0 0 0 0 0 0 0
0 0 0 0 0 -0 -0 0 0 0 0 -0 -0 -0 -0 -0 0 0 -0 -0 0 0 0 0 0 0 0 0 0 0 0 0 0 0 0 0 0 0
-0 0 0 0 -0 -0 -0 -0 -0 -0 -0 -0 -0 -0 0 0 0 0 0 0 0 0 0 0 0 0 0 0 0 0 0 0 0 0 0 0 0 0
-0 -0 -0 0 -0 -0 -0 -0 -0 0 -0 0 0 0 0 -0 -0 -0 0 0 0 0 0 0 0 0 0 0 0 0 0 0 0 0 0 0 0 0
-0 -0 -0 0 0 -0 -0 -0 -0 0 0 0 -0 -0 -0 -0 -0 0 0 0 0 0 0 0 0 0 0 0 0 0 0 0 0 0 0 0 0 0
-0 -0 -0 0 -0 -0 0 -0 0 -0 -0 -0 -0 -0 -0 0 0 0 0 0 0 0 0 0 0 0 0 0 0 0 0 0 0 0 0 0 0 0
-0 0 -0 -0 -0 -0 -0 -0 -0 -0 -0 -0 -0 -0 -0 -0 0 0 0 0 0 0 0 0 0 0 0 0 0 0 0 0 0 0 0 0 0 0
-0 -0 0 0 -0 0 -0 -0 -0 -0 -0 -0 -0 0 0 0 0 0 0 0 0 0 0 0 0 0 0 0 0 0 0 0 0 0 0 0 0 0
Wind_Speed_500mb
16 19 18 12 12 15 17 33 41 37 32 26 27 32 31 31 50 53 47 69 89 86 73 66 66 67 54 43 31 27 24 22 19 16 9 5 1 5
12 15 16 16 10 16 16 34 29 33 26 28 36 34 37 38 37 43 43 63 80 74 74 73 65 56 37 40 27 26 24 20 13 7 7 5 6 9
7 9 13 15 16 18 20 32 31 40 37 40 37 35 34 47 65 59 63 89 82 79 73 66 56 40 42 39 27 24 20 15 11 11 8 8 11 15
5 10 13 13 14 24 29 32 30 32 31 49 44 43 45 67 56 63 93 87 72 68 67 57 40 40 45 34 27 20 21 17 14 10 10 13 18 16
15 16 14 17 26 24 27 26 26 26 32 51 52 55 64 67 86 81 77 72 72 69 58 48 43 43 39 32 26 23 17 15 12 12 16 17 14 15
18 15 16 20 28 26 17 14 21 32 44 53 57 58 74 79 86 84 84 78 70 60 49 43 40 42 40 35 25 20 17 14 14 15 15 14 15 13
12 13 13 14 18 19 18 18 20 28 46 53 67 81 85 90 96 98 93 78 62 50 42 42 40 41 37 29 23 19 17 16 14 12 14 15 13 9
11 17 15 11 11 11 12 7 9 33 60 80 82 89 89 96 103 97 85 71 55 42 41 42 38 34 27 22 22 20 16 13 12 14 14 12 10 7
11 12 9 15 15 16 18 18 29 46 69 86 92 94 93 93 87 71 62 53 46 47 45 44 38 29 25 22 19 18 17 15 14 13 11 11 10 9
16 10 8 17 15 17 28 33 48 53 62 70 61 77 83 81 57 51 44 37 38 51 49 42 34 25 21 18 19 21 18 15 14 14 14 13 13 14
13 12 14 13 17 19 33 45 58 59 59 65 59 57 56 51 42 48 50 50 57 47 39 19 26 21 16 18 20 21 21 19 18 17 16 16 17 20
16 14 17 25 20 26 36 48 63 73 59 56 57 52 44 45 47 47 49 54 52 36 34 26 15 18 12 20 19 21 22 23 22 22 20 19 21 23
20 27 29 27 29 41 37 46 61 72 56 51 56 53 48 49 49 39 32 22 32 12 17 23 16 17 14 6 8 14 17 27 25 25 25 23 22 23
27 36 31 29 37 34 40 40 54 61 61 54 57 60 50 52 44 40 36 18 17 13 3 9 13 12 18 21 20 20 16 17 28 32 31 29 25 24
37 36 35 38 36 39 36 42 49 53 54 56 47 54 47 44 43 42 34 23 19 17 25 28 28 22 27 29 28 25 26 24 22 27 30 29 26 27
39 42 37 37 33 41 41 50 52 52 55 58 56 55 38 39 43 40 34 31 28 27 27 35 39 39 36 33 31 33 34 37 32 27 28 27 27 30
41 46 43 46 48 46 45 42 44 46 51 51 51 46 39 37 37 38 35 35 38 38 36 38 43 47 44 40 47 46 43 44 41 33 31 29 32 37
43 43 41 43 46 48 47 44 38 41 44 42 40 39 41 40 38 39 40 39 40 41 41 42 45 52 53 51 49 50 47 40 37 34 29 29 36 38
39 38 37 39 47 48 48 41 40 37 36 37 39 39 39 39 40 42 43 41 42 41 40 41 41 40 45 49 47 38 40 41 36 31 31 34 38 32
41 40 35 33 38 47 51 46 41 41 43 42 46 42 41 41 44 47 47 48 46 44 45 44 48 47 41 37 36 39 39 41 43 42 32 31 35 42
51 48 45 41 38 34 37 41 43 45 54 57 52 53 53 51 52 52 51 49 46 45 48 53 50 45 46 44 41 38 38 46 50 46 35 39 40 43
51 53 51 53 52 49 47 42 42 43 44 47 49 50 50 51 53 52 50 50 52 52 53 50 52 54 60 60 53 45 46 50 54 52 37 44 30 30
61 60 57 58 62 54 58 59 54 56 59 59 60 60 57 55 56 58 57 58 59 58 62 63 65 64 67 64 57 53 50 47 49 43 43 20 21 25
Wind_Direction_500mb
212 220 225 195 197 215 216 188 182 163 134 147 118 139 122 116 192 179 176 182 173 170 168 160 167 162 165 152 165 170 174 167 170 170 164 177 274 303
189 209 218 208 185 220 207 190 193 178 141 150 136 151 146 135 133 200 192 187 167 171 164 164 163 167 159 147 170 174 183 173 175 178 212 234 280 295
231 212 228 213 190 208 202 187 182 176 176 143 141 144 156 147 154 160 163 168 164 163 162 162 162 161 156 153 177 185 179 178 195 216 242 271 288 293
112 97 108 136 168 173 177 183 176 176 175 154 149 147 156 158 158 173 165 159 156 158 161 159 166 164 156 164 180 177 184 199 214 238 276 282 283 283
103 94 87 113 144 146 151 163 156 154 169 160 153 158 159 160 158 154 159 156 150 155 158 161 160 158 158 180 183 198 201 215 235 259 273 278 277 283
123 118 111 120 142 147 155 145 159 156 163 165 157 164 156 163 166 149 147 146 152 162 164 168 174 170 177 185 199 206 214 229 254 265 260 266 278 275
120 129 158 124 164 170 189 176 185 176 166 166 164 157 153 150 150 152 150 158 157 165 167 166 174 172 178 193 203 216 226 241 244 247 267 274 266 260
109 125 138 151 172 172 161 157 172 176 166 162 161 149 147 151 154 153 152 153 150 169 173 168 171 180 192 201 215 224 230 225 243 263 265 258 248 250
115 114 108 125 135 140 126 129 163 166 168 163 157 162 152 156 148 150 157 165 161 169 172 172 180 192 202 211 220 220 218 231 251 258 250 244 245 269
146 136 122 133 140 143 131 136 153 157 165 165 158 155 151 150 154 154 157 165 170 165 177 176 181 188 203 214 222 220 231 249 256 245 239 241 256 272
156 150 161 153 148 152 138 151 156 156 159 155 142 143 152 153 154 159 165 165 160 168 177 188 184 191 221 241 234 230 242 254 254 246 241 246 258 269
154 166 176 165 158 160 150 154 159 157 152 148 153 151 152 156 158 161 159 165 165 168 182 195 209 214 238 239 231 238 255 258 254 244 241 250 260 271
123 123 124 139 161 161 161 160 164 164 161 152 160 156 154 160 164 160 155 167 171 135 187 196 202 202 223 211 229 254 266 250 245 243 248 255 264 273
122 124 115 128 137 141 153 164 162 163 167 162 165 160 162 162 165 162 156 156 184 202 338 267 257 263 264 274 264 258 264 258 244 246 249 253 262 280
123 119 120 127 130 134 145 151 162 169 174 175 176 172 165 159 164 172 185 201 207 229 235 254 261 255 262 269 267 263 264 278 260 253 252 257 271 280
132 127 124 131 128 134 136 146 154 166 174 179 176 170 162 173 186 196 203 208 222 231 240 237 245 247 257 261 265 268 271 265 272 253 256 263 270 285
147 142 137 137 134 134 135 145 157 162 168 164 170 180 189 194 204 208 213 226 234 236 237 236 242 245 252 257 253 257 262 263 258 262 253 259 260 275
159 158 155 157 151 147 144 146 156 169 175 182 187 198 203 209 215 220 226 237 249 245 244 244 250 249 253 250 251 256 256 253 250 242 241 252 271 274
174 169 169 172 174 167 162 167 181 181 182 189 199 207 212 220 226 233 239 247 246 245 249 250 253 256 256 255 254 250 246 242 235 224 235 279 277 288
187 186 183 181 187 187 184 186 186 198 206 211 215 223 229 237 242 245 243 244 250 250 252 258 260 263 269 286 272 262 243 237 240 242 259 280 283 293
194 195 196 205 212 208 207 210 214 212 215 217 219 227 237 240 244 246 247 250 251 256 259 259 272 276 268 261 264 267 256 247 242 235 248 272 273 286
210 204 201 203 210 224 225 223 225 226 226 228 232 237 242 245 248 251 253 257 260 264 268 268 264 262 256 258 263 267 262 252 241 240 260 292 277 279
222 219 214 212 209 215 230 229 230 231 235 238 240 243 248 250 255 259 259 257 256 255 255 253 253 251 252 254 257 260 256 246 236 241 279 262 272 278
Wind_Speed_850mb
16 19 18 12 12 15 17 33 41 37 32 26 27 32 31 31 50 53 47 69 89 86 73 66 66 67 54 43 31 27 24 22 19 16 9 5 1 5
12 15 16 16 10 16 16 34 29 33 26 28 36 34 37 38 37 43 43 63 80 74 74 73 65 56 37 40 27 26 24 20 13 7 7 5 6 9
7 9 13 15 16 18 20 32 31 40 37 40 37 35 34 47 65 59 63 89 82 79 73 66 56 40 42 39 27 24 20 15 11 11 8 8 11 15
5 10 13 13 14 24 29 32 30 32 31 49 44 43 45 67 56 63 93 87 72 68 67 57 40 40 45 34 27 20 21 17 14 10 10 13 18 16
15 16 14 17 26 24 27 26 26 26 32 51 52 55 64 67 86 81 77 72 72 69 58 48 43 43 39 32 26 23 17 15 12 12 16 17 14 15
18 15 16 20 28 26 17 14 21 32 44 53 57 58 74 79 86 84 84 78 70 60 49 43 40 42 40 35 25 20 17 14 14 15 15 14 15 13
12 13 13 14 18 19 18 18 20 28 46 53 67 81 85 90 96 98 93 78 62 50 42 42 40 41 37 29 23 19 17 16 14 12 14 15 13 9
11 17 15 11 11 11 12 7 9 33 60 80 82 89 89 96 103 97 85 71 55 42 41 42 38 34 27 22 22 20 16 13 12 14 14 12 10 7
11 12 9 15 15 16 18 18 29 46 69 86 92 94 93 93 87 71 62 53 46 47 45 44 38 29 25 22 19 18 17 15 14 13 11 11 10 9
16 10 8 17 15 17 28 33 48 53 62 70 61 77 83 81 57 51 44 37 38 51 49 42 34 25 21 18 19 21 18 15 14 14 14 13 13 14
13 12 14 13 17 19 33 45 58 59 59 65 59 57 56 51 42 48 50 50 57 47 39 19 26 21 16 18 20 21 21 19 18 17 16 16 17 20
16 14 17 25 20 26 36 48 63 73 59 56 57 52 44 45 47 47 49 54 52 36 34 26 15 18 12 20 19 21 22 23 22 22 20 19 21 23
20 27 29 27 29 41 37 46 61 72 56 51 56 53 48 49 49 39 32 22 32 12 17 23 16 17 14 6 8 14 17 27 25 25 25 23 22 23
27 36 31 29 37 34 40 40 54 61 61 54 57 60 50 52 44 40 36 18 17 13 3 9 13 12 18 21 20 20 16 17 28 32 31 29 25 24
37 36 35 38 36 39 36 42 49 53 54 56 47 54 47 44 43 42 34 23 19 17 25 28 28 22 27 29 28 25 26 24 22 27 30 29 26 27
39 42 37 37 33 41 41 50 52 52 55 58 56 55 38 39 43 40 34 31 28 27 27 35 39 39 36 33 31 33 34 37 32 27 28 27 27 30
41 46 43 46 48 46 45 42 44 46 51 51 51 46 39 37 37 38 35 35 38 38 36 38 43 47 44 40 47 46 43 44 41 33 31 29 32 37
43 43 41 43 46 48 47 44 38 41 44 42 40 39 41 40 38 39 40 39 40 41 41 42 45 52 53 51 49 50 47 40 37 34 29 29 36 38
39 38 37 39 47 48 48 41 40 37 36 37 39 39 39 39 40 42 43 41 42 41 40 41 41 40 45 49 47 38 40 41 36 31 31 34 38 32
41 40 35 33 38 47 51 46 41 41 43 42 46 42 41 41 44 47 47 48 46 44 45 44 48 47 41 37 36 39 39 41 43 42 32 31 35 42
51 48 45 41 38 34 37 41 43 45 54 57 52 53 53 51 52 52 51 49 46 45 48 53 50 45 46 44 41 38 38 46 50 46 35 39 40 43
51 53 51 53 52 49 47 42 42 43 44 47 49 50 50 51 53 52 50 50 52 52 53 50 52 54 60 60 53 45 46 50 54 52 37 44 30 30
61 60 57 58 62 54 58 59 54 56 59 59 60 60 57 55 56 58 57 58 59 58 62 63 65 64 67 64 57 53 50 47 49 43 43 20 21 25
Wind_Direction_850mb
212 220 225 195 197 215 216 188 182 163 134 147 118 139 122 116 192 179 176 182 173 170 168 160 167 162 165 152 165 170 174 167 170 170 164 177 274 303
189 209 218 208 185 220 207 190 193 178 141 150 136 151 146 135 133 200 192 187 167 171 164 164 163 167 159 147 170 174 183 173 175 178 212 234 280 295
231 212 228 213 190 208 202 187 182 176 176 143 141 144 156 147 154 160 163 168 164 163 162 162 162 161 156 153 177 185 179 178 195 216 242 271 288 293
112 97 108 136 168 173 177 183 176 176 175 154 149 147 156 158 158 173 165 159 156 158 161 159 166 164 156 164 180 177 184 199 214 238 276 282 283 283
103 94 87 113 144 146 151 163 156 154 169 160 153 158 159 160 158 154 159 156 150 155 158 161 160 158 158 180 183 198 201 215 235 259 273 278 277 283
123 118 111 120 142 147 155 145 159 156 163 165 157 164 156 163 166 149 147 146 152 162 164 168 174 170 177 185 199 206 214 229 254 265 260 266 278 275
120 129 158 124 164 170 189 176 185 176 166 166 164 157 153 150 150 152 150 158 157 165 167 166 174 172 178 193 203 216 226 241 244 247 267 274 266 260
109 125 138 151 172 172 161 157 172 176 166 162 161 149 147 151 154 153 152 153 150 169 173 168 171 180 192 201 215 224 230 225 243 263 265 258 248 250
115 114 108 125 135 140 126 129 163 166 168 163 157 162 152 156 148 150 157 165 161 169 172 172 180 192 202 211 220 220 218 231 251 258 250 244 245 269
146 136 122 133 140 143 131 136 153 157 165 165 158 155 151 150 154 154 157 165 170 165 177 176 181 188 203 214 222 220 231 249 256 245 239 241 256 272
156 150 161 153 148 152 138 151 156 156 159 155 142 143 152 153 154 159 165 165 160 168 177 188 184 191 221 241 234 230 242 254 254 246 241 246 258 269
154 166 176 165 158 160 150 154 159 157 152 148 153 151 152 156 158 161 159 165 165 168 182 195 209 214 238 239 231 238 255 258 254 244 241 250 260 271
123 123 124 139 161 161 161 160 164 164 161 152 160 156 154 160 164 160 155 167 171 135 187 196 202 202 223 211 229 254 266 250 245 243 248 255 264 273
122 124 115 128 137 141 153 164 162 163 167 162 165 160 162 162 165 162 156 156 184 202 338 267 257 263 264 274 264 258 264 258 244 246 249 253 262 280
123 119 120 127 130 134 145 151 162 169 174 175 176 172 165 159 164 172 185 201 207 229 235 254 261 255 262 269 267 263 264 278 260 253 252 257 271 280
132 127 124 131 128 134 136 146 154 166 174 179 176 170 162 173 186 196 203 208 222 231 240 237 245 247 257 261 265 268 271 265 272 253 256 263 270 285
147 142 137 137 134 134 135 145 157 162 168 164 170 180 189 194 204 208 213 226 234 236 237 236 242 245 252 257 253 257 262 263 258 262 253 259 260 275
159 158 155 157 151 147 144 146 156 169 175 182 187 198 203 209 215 220 226 237 249 245 244 244 250 249 253 250 251 256 256 253 250 242 241 252 271 274
174 169 169 172 174 167 162 167 181 181 182 189 199 207 212 220 226 233 239 247 246 245 249 250 253 256 256 255 254 250 246 242 235 224 235 279 277 288
187 186 183 181 187 187 184 186 186 198 206 211 215 223 229 237 242 245 243 244 250 250 252 258 260 263 269 286 272 262 243 237 240 242 259 280 283 293
194 195 196 205 212 208 207 210 214 212 215 217 219 227 237 240 244 246 247 250 251 256 259 259 272 276 268 261 264 267 256 247 242 235 248 272 273 286
210 204 201 203 210 224 225 223 225 226 226 228 232 237 242 245 248 251 253 257 260 264 268 268 264 262 256 258 263 267 262 252 241 240 260 292 277 279
222 219 214 212 209 215 230 229 230 231 235 238 240 243 248 250 255 259 259 257 256 255 255 253 253 251 252 254 257 260 256 246 236 241 279 262 272 278